GEFSNGP_500_meanwind_198.txt.gz
Wind_Speed
16 15 15 14 13 13 14 14 15 14 15 15 16 16 16 16 17 16 15 14 14 14 15 15 14 14 14 14 14 13 12 13 13 13 12 13 14 14 15 15 15 15 15 16
13 13 13 12 12 13 13 13 13 14 14 14 15 15 15 16 16 15 15 15 15 15 14 13 12 12 12 13 13 11 12 12 12 11 11 12 12 13 13 14 14 15 15 16
13 12 12 12 11 12 12 12 13 14 13 13 13 14 15 15 15 14 14 14 14 13 13 12 11 11 11 11 11 11 10 10 10 10 10 11 11 12 13 14 14 14 14 14
13 12 12 11 11 11 11 11 12 12 12 12 13 13 13 12 11 11 11 12 11 11 11 10 10 10 10 11 10 10 10 10 10 10 11 11 11 12 13 13 13 13 13 13
12 11 11 10 10 10 10 10 11 10 11 12 13 12 10 10 10 9 9 9 8 8 9 9 10 9 9 10 10 10 10 10 10 10 9 10 11 12 12 12 13 12 13 13
12 11 11 10 10 10 10 9 10 9 10 11 11 10 8 8 8 7 7 7 6 7 8 8 8 8 8 9 9 9 10 9 9 9 9 10 10 11 11 12 12 13 13 14
11 10 10 10 10 9 9 8 9 9 10 10 10 9 7 8 7 6 6 6 6 6 7 7 7 7 8 8 8 9 9 9 9 8 8 9 10 10 11 11 12 12 13 14
12 10 9 10 10 9 9 9 9 8 8 8 8 7 7 7 6 5 5 5 5 5 6 6 6 7 7 8 8 8 8 8 7 7 8 9 9 10 10 11 11 12 13 14
11 10 10 10 10 10 9 9 8 8 8 7 7 6 6 6 5 5 4 4 5 4 4 5 5 6 6 7 7 7 7 6 6 7 8 9 9 9 10 11 11 12 13 13
11 10 11 10 10 10 9 9 9 8 7 7 7 6 5 5 4 4 4 4 4 4 4 4 4 4 4 5 5 5 5 5 5 6 7 8 8 9 10 10 11 12 13 15
11 11 11 11 11 9 9 9 8 7 7 6 6 5 4 3 3 3 3 3 3 3 3 3 3 4 4 5 5 4 4 5 5 5 7 8 8 9 10 11 12 13 14 16
11 11 12 11 11 9 8 8 7 7 6 6 6 6 4 3 2 2 2 2 3 3 2 2 3 4 4 4 4 4 4 5 5 6 7 8 9 10 11 12 13 14 15 17
10 11 12 11 10 9 8 9 8 8 7 6 6 5 5 4 3 2 2 3 3 3 2 2 2 3 4 4 4 4 4 5 6 7 7 8 10 11 12 12 13 15 16 17
10 10 11 11 11 10 9 9 9 7 7 6 6 5 5 4 4 3 2 3 2 2 2 2 2 2 3 4 5 5 5 6 6 7 8 10 11 11 12 13 14 16 17 19
9 9 9 10 9 10 10 9 8 8 7 7 7 6 5 5 4 3 3 2 1 1 1 1 1 1 2 3 4 4 5 6 7 8 9 10 11 12 13 14 16 17 18 20
9 8 9 10 9 10 10 9 9 9 8 8 7 6 5 5 4 3 3 2 2 1 1 1 1 1 2 3 4 4 5 6 7 8 9 11 12 13 14 15 16 18 20 21
10 10 10 10 9 9 9 9 8 8 8 8 8 7 6 6 5 4 3 2 2 1 1 0 1 1 2 2 3 4 5 6 7 9 10 11 13 14 15 16 18 19 21 23
10 10 10 10 10 9 9 9 8 8 8 9 9 8 7 7 6 5 4 3 2 2 1 1 1 1 1 2 3 4 5 6 8 9 10 11 13 15 16 17 19 21 23 25
11 11 10 10 10 9 9 9 9 9 9 9 9 9 8 8 7 5 5 4 3 3 2 2 2 2 2 3 3 4 5 7 8 9 11 12 14 15 17 19 20 22 24 26
11 10 11 11 10 9 9 9 9 9 9 9 9 9 9 8 7 6 5 4 3 2 2 2 2 2 2 3 3 4 6 7 8 9 11 13 14 16 18 20 22 23 25 27
10 10 10 11 11 10 9 9 9 9 9 10 9 9 8 8 7 6 5 4 3 3 2 2 1 1 2 2 4 5 6 7 8 10 12 14 16 18 19 21 23 25 26 28
12 11 11 11 11 10 9 9 9 9 10 9 9 9 8 8 7 6 5 4 3 3 2 2 1 1 1 3 4 5 6 7 8 10 13 15 17 19 21 22 24 25 27 29
12 12 12 12 12 11 10 9 9 10 9 9 10 9 9 8 7 6 5 5 4 3 3 2 2 2 2 3 5 6 7 9 10 12 13 16 18 19 21 23 24 26 28 29
13 14 13 12 12 11 11 10 10 9 9 9 10 10 9 8 7 6 5 5 4 4 3 2 1 2 3 4 6 7 8 10 11 12 14 17 19 20 22 23 25 27 29 30
14 14 14 13 13 12 11 10 10 10 9 9 10 10 9 8 7 6 5 5 4 3 2 1 1 2 3 5 6 8 9 11 12 14 15 17 19 21 22 24 26 28 29 30
14 15 15 14 13 13 12 11 10 10 10 10 10 10 9 8 7 7 6 5 4 3 2 1 1 3 4 6 7 8 10 11 13 15 16 18 20 21 23 24 26 28 29 31
15 15 15 15 14 14 13 12 11 10 10 10 10 10 9 8 8 8 7 6 4 3 2 2 2 3 4 6 7 9 11 12 14 16 18 19 21 22 23 25 27 28 30 31

GEFSNGP_500_meanwind_204.txt.gz
Wind_Speed
10 10 9 9 9 9 9 10 11 11 12 13 14 14 14 14 14 13 13 13 14 14 14 14 15 14 14 14 14 14 13 13 13 13 14 14 14 13 13 14 15 15 16 15
9 8 9 8 7 8 9 9 9 10 11 13 13 12 13 13 13 13 13 13 12 12 13 13 12 12 12 12 12 12 12 11 12 13 13 13 13 13 13 14 15 14 14 14
8 7 7 7 6 6 7 8 9 10 11 11 11 11 11 11 11 12 12 11 10 11 11 11 11 10 10 10 10 10 10 10 11 11 11 11 11 11 12 13 13 13 13 14
7 6 6 6 6 6 7 9 10 11 11 10 10 10 10 11 10 10 9 9 8 8 8 8 9 8 8 8 9 9 10 10 11 10 10 10 9 10 11 12 13 14 14 15
6 6 6 6 6 6 7 9 10 10 10 9 10 10 10 10 10 9 8 7 6 6 6 6 5 5 6 6 7 8 9 9 10 9 9 8 9 10 11 12 13 13 14 15
6 5 5 6 7 8 8 10 9 9 9 9 10 9 8 8 7 6 5 4 4 5 4 4 4 4 5 6 6 6 7 7 8 8 8 8 9 9 10 11 12 13 13 15
5 5 6 7 7 7 8 8 8 8 8 8 9 9 8 6 5 4 4 4 4 4 4 4 4 4 4 5 5 5 6 6 6 6 7 8 8 9 10 11 12 13 14 15
5 5 6 7 7 7 7 7 8 7 8 7 7 8 7 5 5 5 4 4 3 3 3 2 2 3 3 4 4 4 5 5 5 6 6 7 9 10 11 12 12 13 14 16
6 6 7 7 7 7 7 7 7 7 7 7 7 6 6 5 5 5 4 3 3 3 2 1 1 2 2 3 3 3 3 4 5 6 6 7 9 9 10 11 12 14 15 16
7 7 7 8 8 8 8 8 8 7 7 7 7 6 5 5 5 4 3 2 2 2 1 1 1 1 2 2 3 3 3 4 5 5 7 8 9 9 10 11 13 14 15 16
7 7 8 8 8 7 7 7 7 6 6 6 7 6 5 5 4 4 3 2 2 1 1 1 0 1 2 2 2 3 4 4 5 6 8 8 9 10 11 12 13 14 15 16
7 8 9 8 8 8 7 7 6 6 6 6 6 5 4 3 3 2 2 2 2 1 1 1 1 1 2 3 2 3 4 5 6 7 8 8 9 10 11 12 13 14 16 17
9 9 9 8 8 8 8 7 6 6 5 5 5 4 3 3 3 2 2 2 2 2 2 1 2 2 2 3 3 4 4 5 6 7 8 9 10 10 11 12 14 15 17 18
9 10 10 9 9 8 8 7 6 5 5 5 4 4 3 4 3 3 2 2 2 2 1 2 2 2 2 3 3 4 5 6 7 8 8 9 10 10 11 12 14 16 17 18
10 10 10 9 9 9 8 7 6 6 6 6 5 5 4 4 4 3 3 3 3 2 2 2 2 2 2 3 3 4 6 7 7 8 8 9 10 11 12 14 16 17 18 20
10 10 9 9 9 8 8 6 6 6 6 6 6 6 6 5 5 4 4 4 3 3 3 2 3 3 3 3 4 5 6 7 7 8 9 10 10 12 14 15 17 18 19 20
11 11 10 10 9 8 8 7 8 8 7 7 8 8 7 6 5 5 5 5 4 3 3 3 3 3 3 4 4 5 6 7 7 8 9 10 11 13 15 16 18 19 20 21
11 11 11 10 10 9 8 9 8 8 8 8 8 9 9 8 7 7 6 6 5 4 4 3 3 3 3 4 4 5 6 6 7 8 9 10 12 14 16 18 19 20 21 22
11 11 11 11 11 10 10 10 10 9 9 9 9 9 8 8 7 7 6 6 5 5 4 4 4 4 4 3 4 4 5 6 7 8 10 11 13 15 17 19 20 21 21 22
12 11 11 11 11 11 11 11 11 10 10 10 9 9 8 8 8 8 7 7 7 6 5 4 4 4 4 4 4 4 5 6 8 9 11 12 14 16 17 19 20 21 22 23
13 12 12 12 12 12 11 11 11 10 10 10 9 8 7 7 8 8 8 8 8 7 6 5 4 4 4 4 5 5 6 7 9 10 11 13 14 16 18 19 20 21 23 23
13 12 12 12 12 11 11 11 11 11 10 9 9 9 8 7 8 8 8 8 7 7 6 5 4 4 4 4 5 6 6 8 9 10 11 13 15 16 18 19 20 22 23 23
13 12 12 12 12 12 11 11 11 10 10 9 9 9 8 7 7 8 8 8 7 6 6 5 4 4 4 5 5 6 7 8 9 10 12 13 14 16 18 19 20 22 23 24
15 14 13 12 12 12 12 11 11 10 10 9 9 9 8 7 6 7 8 8 7 6 6 5 4 4 4 5 5 6 7 8 9 10 12 13 15 16 17 19 21 22 24 25
15 15 14 14 13 13 12 11 10 10 9 8 8 8 8 7 6 6 7 7 7 6 5 5 4 3 4 4 5 6 7 8 9 10 12 13 15 16 17 19 21 23 25 26
16 15 15 14 14 13 12 11 10 10 9 8 8 8 7 7 7 7 7 7 7 7 6 5 4 4 4 4 4 5 7 8 9 11 12 13 15 16 18 20 22 23 25 26
18 17 16 15 15 14 13 12 11 10 9 9 9 9 8 8 7 7 7 7 7 7 6 5 4 4 4 4 4 5 7 8 10 11 12 14 15 17 19 21 22 24 25 27

GEFSNGP_500_meanwind_210.txt.gz
Wind_Speed
9 8 8 8 6 6 7 8 9 10 13 14 14 14 14 14 15 15 15 14 13 13 13 14 14 14 14 14 13 13 13 13 14 14 15 14 14 14 14 14 14 16 17 17
8 8 7 6 5 6 7 9 10 10 11 13 14 15 14 13 14 15 14 14 14 14 14 14 13 13 13 12 12 12 12 13 13 14 14 13 12 12 13 13 14 15 16 16
9 8 6 6 6 8 8 9 12 12 12 13 14 14 14 14 14 14 14 13 13 13 12 11 11 10 10 11 12 11 11 12 12 12 12 12 12 12 12 12 13 14 15 16
9 8 5 6 7 9 9 10 11 11 12 13 14 13 14 14 13 13 13 13 12 11 10 9 9 9 8 9 9 9 10 10 10 11 11 11 10 10 11 12 13 14 15 16
9 8 7 8 9 10 10 10 11 11 12 12 11 11 11 12 12 12 12 12 10 9 8 8 7 7 7 7 7 7 8 8 9 10 9 8 8 9 11 12 13 14 14 16
8 8 8 8 9 9 9 10 10 11 12 11 11 10 10 11 11 10 10 10 9 8 7 7 6 6 5 5 6 6 7 7 8 8 7 7 8 9 10 12 13 14 15 16
8 8 9 8 9 10 10 9 10 11 11 11 11 11 11 10 10 9 9 9 8 6 6 6 6 5 5 5 6 6 6 6 6 7 7 7 8 9 10 12 13 14 15 16
9 9 10 9 10 10 10 10 11 10 11 11 10 9 10 9 9 9 9 8 8 7 6 6 5 5 4 5 5 5 5 6 6 7 7 8 9 9 10 12 13 15 16 17
9 10 10 10 10 10 10 10 10 10 10 10 9 9 9 8 8 8 8 7 6 6 6 5 5 5 5 5 5 5 5 6 7 7 8 9 10 11 11 13 14 15 16 17
10 10 9 11 10 9 10 10 9 10 10 9 8 8 8 7 6 7 7 7 6 5 5 5 5 5 4 5 5 5 5 6 7 7 8 9 10 11 12 13 14 15 17 17
10 10 11 11 10 10 10 10 9 9 9 8 7 8 8 7 6 6 6 7 6 6 5 5 5 4 4 4 4 5 5 6 7 8 9 9 10 11 12 13 14 16 17 18
11 11 11 10 10 10 10 10 10 9 8 8 8 8 7 7 6 6 6 6 6 6 5 4 4 4 4 4 4 5 6 6 7 8 9 9 10 11 12 14 15 17 18 19
12 11 11 11 11 11 11 10 10 8 7 7 8 8 7 7 7 7 6 5 6 5 5 3 3 4 5 5 5 6 6 7 8 8 9 10 11 12 13 14 15 17 18 19
12 11 11 11 11 12 11 10 9 8 7 7 8 8 8 8 8 7 6 6 6 6 5 4 4 4 5 6 6 6 7 7 7 8 9 10 11 13 14 15 16 18 19 20
12 12 11 10 11 11 11 10 9 8 8 8 8 9 8 8 8 7 7 6 6 6 6 5 5 5 5 6 6 6 6 7 8 8 9 10 12 13 14 15 17 18 19 20
13 12 12 11 11 11 11 10 9 8 9 9 9 9 8 8 8 8 7 7 7 7 6 6 6 5 5 5 6 6 6 7 8 9 10 11 12 14 15 17 18 20 20 21
14 14 13 12 12 11 11 10 9 9 10 10 10 9 9 9 9 8 8 8 8 7 7 7 6 5 5 5 6 7 7 8 8 9 11 12 13 15 16 18 19 20 21 22
14 14 14 13 12 12 12 11 10 10 10 10 10 10 10 10 10 9 8 8 8 8 8 8 7 7 7 7 7 8 8 8 9 10 11 12 13 15 16 18 19 21 22 23
16 16 15 14 14 13 13 12 11 11 11 11 11 11 11 11 11 10 9 9 9 9 8 8 8 8 8 8 8 8 8 8 9 10 11 13 14 15 16 18 20 21 22 23
16 16 16 15 15 14 13 12 12 12 12 13 12 12 12 11 11 11 10 10 9 9 8 8 8 8 8 8 8 8 8 8 9 10 12 13 15 16 17 18 20 22 23 24
16 16 15 15 15 15 14 14 13 14 14 14 14 13 13 12 11 11 11 10 10 9 9 8 8 8 8 8 8 8 8 9 9 11 12 14 15 16 17 19 20 22 23 25
17 17 17 16 16 16 16 15 15 15 15 15 15 14 13 13 12 12 11 11 10 10 10 9 8 8 8 7 8 8 9 9 10 11 12 14 15 16 17 19 21 22 24 25
18 18 18 17 17 17 16 16 16 16 16 15 15 14 14 13 12 12 11 11 10 11 10 9 9 9 8 8 8 9 9 10 10 11 13 14 15 17 18 20 21 23 24 25
19 19 19 18 18 17 17 17 17 17 16 16 15 14 13 12 12 12 11 11 10 10 10 9 9 9 9 9 9 9 9 10 11 11 13 14 16 17 19 21 22 24 25 26
21 20 20 19 18 18 17 17 17 17 16 16 15 14 13 12 12 11 11 11 11 10 10 10 9 9 9 9 9 9 10 10 11 12 13 15 16 18 19 21 22 24 25 26
22 21 20 20 19 18 18 17 17 16 16 16 15 14 13 12 12 11 11 11 11 10 10 10 10 9 9 9 9 10 10 10 11 12 13 15 17 18 19 21 22 24 25 25
23 22 21 20 20 19 19 18 17 16 16 15 15 14 14 13 12 12 11 11 11 10 10 10 10 10 10 10 10 9 10 10 10 11 13 15 16 18 19 20 22 23 24 25

GEFSNGP_500_meanwind_216.txt.gz
Wind_Speed
8 8 7 7 7 7 7 8 8 8 9 10 11 11 12 12 11 11 11 11 10 10 10 8 8 8 8 7 7 8 8 8 8 8 9 10 10 10 10 11 11 12 13 14
8 8 8 7 7 6 6 7 8 8 8 10 10 10 11 11 11 11 11 11 10 10 9 9 8 6 6 7 7 8 8 8 9 9 9 9 10 10 10 11 11 12 13 14
7 8 8 7 7 7 7 7 7 8 8 9 9 9 11 11 11 12 11 10 9 9 9 8 7 6 6 7 7 8 8 8 9 9 9 9 10 9 9 10 11 11 12 12
7 8 8 7 7 7 7 8 8 8 9 9 9 10 10 10 10 11 11 10 9 10 9 8 8 6 5 6 6 7 7 7 8 8 8 8 8 8 8 9 10 10 11 12
9 9 7 8 9 8 8 8 8 8 9 9 9 9 9 9 9 10 11 10 9 9 9 8 7 6 5 4 5 5 5 6 6 6 7 7 7 7 8 9 9 9 11 11
10 9 8 8 8 8 7 7 7 7 8 9 10 8 8 9 9 10 10 10 9 9 8 8 7 6 5 4 4 4 4 4 4 5 5 5 6 6 7 8 8 9 11 12
10 9 9 8 7 6 6 6 6 6 8 9 9 9 9 9 9 9 9 9 9 9 9 8 7 6 6 5 4 3 3 3 3 4 4 5 5 6 7 8 9 10 11 13
10 9 9 9 6 6 7 7 7 7 8 8 9 9 9 9 9 9 9 9 9 9 9 8 7 7 6 6 5 4 3 4 4 5 5 5 5 6 7 8 9 10 12 13
10 9 10 8 7 6 7 7 7 7 8 9 10 9 9 9 9 9 9 8 8 9 8 8 7 7 6 6 5 5 4 4 5 6 6 6 6 6 7 8 9 10 12 13
10 9 9 8 7 6 6 7 6 7 8 9 9 9 9 9 9 8 8 8 8 8 8 8 7 6 6 5 5 5 4 4 5 6 6 6 6 7 8 8 9 11 12 14
10 9 9 8 8 7 7 7 6 7 7 8 8 8 8 9 8 7 7 7 7 8 8 8 7 6 5 5 5 5 5 5 5 6 6 6 7 7 8 8 10 12 13 15
10 10 9 9 8 8 8 7 7 7 7 7 8 7 7 7 7 7 7 7 6 7 7 7 7 7 5 5 5 6 6 6 6 6 6 7 7 7 8 9 11 13 14 16
10 10 10 9 8 8 8 7 7 7 7 7 7 7 7 7 7 7 7 7 7 7 7 8 7 7 6 5 5 5 6 6 6 7 7 7 8 8 10 11 12 14 16 18
11 11 10 10 10 9 9 8 8 7 7 7 7 7 7 7 7 7 7 7 8 8 8 8 7 6 6 5 5 6 6 6 7 7 7 8 9 10 11 13 14 16 17 19
12 12 12 11 10 9 9 9 8 7 7 7 7 7 7 8 8 8 8 8 8 8 8 7 7 6 5 5 5 5 6 6 7 7 8 9 10 11 12 14 16 17 18 19
13 13 13 12 11 10 9 9 9 8 8 8 8 8 8 8 9 9 8 8 8 8 8 8 7 6 6 5 5 5 6 7 7 7 8 9 10 12 13 14 16 17 19 20
13 13 13 12 12 11 10 10 10 10 10 9 9 9 9 9 9 9 8 9 9 9 8 8 7 7 6 6 5 5 6 7 8 8 9 10 11 12 13 14 16 18 20 21
14 13 13 13 12 12 11 11 11 11 11 11 11 11 11 10 9 10 10 10 9 9 9 9 8 7 7 6 6 6 7 7 8 9 10 11 12 13 14 15 16 18 20 21
15 14 14 13 13 13 13 12 12 12 12 12 11 11 11 11 11 11 11 11 10 10 10 9 9 8 8 7 7 7 7 8 8 9 10 11 12 13 14 15 17 18 20 22
16 15 15 15 14 14 14 13 13 13 13 13 12 12 12 11 11 11 11 11 11 11 11 10 9 9 9 9 8 8 8 8 9 10 11 12 13 14 15 16 17 19 21 22
16 16 16 16 15 15 15 14 14 14 14 14 13 13 12 12 12 11 11 11 12 12 11 11 10 10 10 9 9 9 9 9 9 10 11 12 13 14 15 17 18 20 21 23
17 16 16 16 16 16 15 15 15 15 15 15 15 14 13 13 13 12 12 12 12 13 12 12 11 11 10 10 10 10 10 10 10 11 12 13 14 15 16 17 19 21 22 23
18 18 17 17 17 17 17 17 17 17 17 16 15 15 14 14 14 13 13 13 13 13 13 13 13 12 11 11 11 11 10 10 10 11 12 13 14 16 16 18 19 21 22 23
19 19 19 19 18 18 18 18 18 18 17 17 17 16 16 15 15 15 14 14 14 14 14 14 14 13 12 12 12 12 11 11 11 11 12 14 15 16 17 18 19 21 22 23
21 21 20 20 19 19 19 19 19 19 19 18 18 17 17 16 16 15 15 15 15 14 14 14 14 13 12 12 12 12 12 12 11 11 13 14 15 16 17 18 19 20 21 23
23 22 21 21 21 21 21 20 20 19 19 18 18 18 17 17 17 16 16 16 15 15 14 14 14 13 13 13 13 13 12 12 12 12 13 14 15 16 18 19 19 21 22 23
25 24 23 22 22 21 21 21 20 19 19 19 19 19 18 17 17 16 16 16 16 15 15 14 14 14 13 13 13 13 12 12 12 13 13 14 15 17 18 19 19 20 21 23

GEFSNGP_500_meanwind_222.txt.gz
Wind_Speed
7 7 6 6 6 7 7 7 6 7 8 7 7 8 9 10 12 12 12 12 11 10 10 9 9 8 8 8 7 7 6 6 7 7 7 8 9 11 12 12 12 12 12 12
6 7 6 6 7 7 6 6 6 7 7 7 8 8 9 10 11 11 11 11 10 10 9 9 8 8 8 7 6 6 5 6 6 7 7 8 9 10 11 10 11 11 11 11
6 6 6 7 8 7 6 6 6 6 7 7 7 8 9 11 12 12 11 11 11 9 9 8 8 8 8 8 7 6 6 6 6 6 7 7 8 9 10 9 10 10 10 12
6 6 6 7 8 7 6 5 5 6 7 7 8 8 9 10 10 10 10 10 10 9 9 8 8 8 7 7 7 6 6 6 6 6 7 8 9 9 10 10 10 10 11 12
7 7 6 7 8 7 6 5 6 6 7 7 7 8 8 9 9 10 10 10 10 10 9 8 7 8 7 7 7 7 7 7 7 7 7 8 8 9 9 10 10 11 11 13
8 8 8 8 9 8 7 5 6 6 6 7 8 7 8 9 9 9 9 10 10 10 9 8 8 8 8 7 6 6 6 7 7 7 7 7 8 8 9 9 10 10 11 13
8 8 8 9 9 8 7 5 5 6 7 8 8 8 8 8 8 9 9 10 10 10 9 8 8 8 8 7 6 6 7 7 6 6 6 7 7 8 8 9 10 11 12 13
8 8 7 8 9 7 6 5 6 7 7 8 8 7 8 8 9 9 9 9 9 9 8 8 7 7 7 7 6 6 6 6 6 6 7 7 8 8 8 9 10 12 13 14
8 7 7 8 8 7 7 7 7 8 8 8 8 7 8 8 9 9 9 8 8 9 8 8 7 7 7 7 7 7 6 6 6 6 7 8 8 8 9 10 11 12 14 15
8 8 8 8 8 7 7 7 7 8 8 8 8 7 8 8 8 8 8 8 8 8 9 9 8 7 7 7 7 7 6 7 7 7 8 8 9 9 9 10 11 13 14 16
9 9 9 9 9 9 8 9 8 8 8 8 8 8 8 8 8 8 8 8 8 9 8 8 8 8 7 8 8 7 7 7 7 7 8 8 9 9 10 11 12 13 15 16
9 9 9 10 10 10 10 10 10 9 9 9 9 8 8 8 8 7 7 8 8 8 8 8 8 8 8 8 8 7 7 7 7 8 8 9 9 10 11 12 13 15 16 18
11 10 10 10 11 11 11 11 10 10 9 9 9 9 8 8 8 8 8 8 8 8 8 8 8 8 8 8 8 8 8 8 8 9 9 9 10 11 12 13 14 15 16 18
12 12 11 12 12 12 12 11 11 10 10 10 10 9 9 8 8 8 8 8 8 8 8 8 8 8 9 9 8 8 8 8 9 9 10 10 11 12 13 13 15 16 17 18
13 13 13 13 13 13 13 12 11 11 11 10 10 10 10 9 9 9 9 9 9 9 9 8 8 8 9 9 8 8 9 9 10 10 11 11 12 13 14 15 15 16 18 19
14 13 13 13 13 13 13 13 12 12 11 12 11 11 11 11 10 10 10 10 10 9 9 9 9 9 9 9 9 9 9 10 10 11 11 12 13 14 15 16 17 17 18 20
15 14 14 14 14 14 14 13 13 12 12 12 13 12 12 12 11 10 10 10 10 10 10 10 10 9 9 9 9 9 10 10 11 12 12 13 14 15 16 17 18 18 19 21
17 16 15 15 15 15 14 14 13 13 13 13 13 13 13 12 12 11 11 11 11 11 11 11 10 10 10 10 9 10 11 11 12 13 13 14 15 15 16 17 19 19 20 21
17 16 16 16 16 15 15 15 15 14 14 14 14 14 14 13 13 12 12 12 12 12 12 11 11 11 11 11 11 11 12 13 13 14 14 15 15 16 17 18 19 20 20 21
18 18 18 18 17 17 16 16 16 15 15 15 15 15 14 14 14 13 13 13 13 13 13 12 12 12 12 12 12 12 12 13 14 15 15 16 16 16 17 18 20 21 22 22
21 20 20 19 19 18 18 17 17 16 16 16 16 16 16 16 15 15 14 14 14 14 13 13 13 13 13 13 13 13 13 14 15 16 16 16 17 17 18 18 20 21 22 23
23 22 22 21 21 20 19 19 18 17 17 17 17 18 17 17 17 16 16 15 15 15 15 14 14 14 14 14 14 14 14 15 16 16 16 17 18 18 18 19 20 21 22 23
24 23 23 22 22 21 21 20 19 19 18 18 18 18 18 18 17 17 16 16 16 16 16 15 15 15 14 14 15 15 16 16 16 17 17 17 17 18 19 19 20 20 22 23
25 24 24 23 23 22 21 20 20 19 19 19 18 18 18 18 18 18 18 17 17 17 16 16 16 15 15 15 16 16 17 17 17 17 17 17 17 18 19 19 19 20 21 22
26 25 24 24 24 23 21 21 20 20 20 19 19 18 18 18 18 19 18 18 18 18 17 17 17 16 16 16 17 17 17 17 17 17 17 17 18 18 19 19 20 20 20 21
26 25 25 25 24 24 23 22 21 21 21 20 20 19 19 19 19 19 19 19 19 19 18 18 17 17 17 17 17 17 17 17 17 17 18 18 17 18 18 19 19 19 19 20
27 26 26 25 25 24 24 23 23 22 22 21 21 20 20 20 20 20 20 20 20 19 19 19 18 18 18 18 18 18 17 17 17 17 17 17 17 17 18 19 19 19 20 20

GEFSNGP_500_meanwind_228.txt.gz
Wind_Speed
6 5 5 5 6 6 6 6 5 6 7 7 6 6 7 9 10 10 11 11 12 11 11 10 9 9 8 8 7 7 6 6 6 6 6 6 5 6 7 8 9 10 11 12
5 5 5 5 6 6 6 5 5 6 7 7 7 7 8 9 10 10 11 12 12 11 11 10 8 8 8 7 6 6 6 6 6 5 4 4 5 6 7 8 9 9 10 11
5 5 6 6 6 5 5 4 4 5 5 7 7 7 7 9 9 10 11 11 11 10 10 9 8 7 6 6 5 5 5 5 5 4 4 5 5 6 8 8 9 9 10 11
5 5 5 5 5 5 5 5 5 5 5 7 7 7 8 9 9 10 11 10 10 9 9 9 7 7 5 5 5 4 4 4 5 4 5 6 7 8 8 8 9 9 10 11
4 5 5 5 5 5 5 6 5 5 6 7 7 8 8 9 9 10 10 10 9 9 8 8 7 7 6 6 5 5 5 5 5 5 5 6 7 8 8 7 8 9 10 10
5 5 5 6 6 6 6 6 5 6 6 7 7 8 9 9 9 10 9 9 9 8 8 7 7 7 6 6 5 5 5 5 5 5 6 7 8 8 7 7 8 9 10 11
6 6 6 6 6 6 6 6 5 6 7 8 8 8 9 9 9 9 9 8 8 7 7 7 7 6 6 6 5 4 5 5 5 5 6 7 7 7 7 8 9 10 11 12
7 7 7 7 7 7 7 7 7 7 8 8 8 8 9 9 9 9 8 7 7 7 6 6 6 6 6 6 6 6 6 6 6 6 7 7 8 7 8 8 10 10 11 12
8 8 8 8 7 7 7 7 7 7 7 8 8 8 8 8 9 9 8 7 7 7 6 6 6 6 6 6 6 6 6 6 6 7 7 8 8 8 8 9 10 11 12 13
9 8 9 8 7 7 7 7 7 7 7 7 7 7 7 8 8 9 8 7 7 7 7 6 6 6 6 6 6 7 7 7 7 7 8 8 8 9 9 10 11 12 13 15
10 10 10 9 8 8 8 8 8 7 7 7 8 8 8 8 8 9 9 8 7 6 6 6 6 6 6 6 6 7 7 7 8 8 9 10 10 11 11 12 12 13 15 15
11 10 10 10 10 10 10 9 9 9 9 8 8 9 9 8 8 8 8 7 7 6 6 6 6 6 6 6 7 8 8 8 9 9 9 10 11 12 12 13 13 14 15 17
11 11 11 11 11 11 10 10 10 10 10 9 9 10 9 9 9 8 8 7 6 6 6 6 7 6 7 7 8 8 8 9 9 10 10 10 11 12 12 13 14 15 16 17
12 12 12 12 12 11 11 12 11 11 11 11 10 10 10 10 9 9 8 7 6 6 7 7 7 7 8 8 8 8 9 9 10 10 10 10 11 12 13 14 15 16 17 18
12 12 13 13 13 12 12 12 12 11 11 11 11 10 10 10 9 9 8 8 8 8 8 8 8 9 9 9 9 9 10 10 11 11 11 11 12 13 14 15 16 17 18 19
14 14 13 13 13 13 12 12 12 11 11 10 10 10 10 9 9 9 9 9 10 10 10 10 10 10 10 10 10 10 11 11 11 12 12 12 13 14 15 16 17 18 19 20
16 15 15 15 14 13 13 13 13 12 11 11 10 10 10 10 9 9 9 10 11 11 11 11 11 11 11 11 11 11 11 12 12 12 12 13 14 15 16 16 17 18 19 20
18 17 16 16 15 15 14 14 14 13 12 11 11 11 11 11 11 11 11 12 12 12 12 12 11 11 11 11 12 12 12 13 13 13 13 13 14 15 16 17 18 19 20 20
19 18 18 17 16 16 15 15 14 14 13 12 12 12 12 12 12 12 13 13 13 13 13 12 12 12 12 13 13 13 13 13 12 12 13 14 15 15 16 17 18 19 20 20
20 20 19 18 17 17 17 16 16 15 15 14 14 14 13 13 13 14 14 14 14 14 14 13 13 13 13 13 13 13 13 12 12 13 13 14 15 16 16 17 18 19 19 20
22 21 21 20 19 19 19 18 18 17 17 16 15 14 15 14 14 14 15 14 14 14 14 14 13 13 13 13 13 13 13 13 13 14 14 15 15 16 17 17 18 19 19 20
23 23 23 22 22 21 20 20 19 18 18 17 16 16 16 16 15 16 16 15 15 15 15 14 14 13 14 14 14 14 13 14 14 14 15 15 16 16 17 18 18 19 20 20
25 25 24 23 23 22 21 21 20 20 19 19 18 18 18 18 17 17 17 16 16 16 16 16 15 15 15 14 15 14 14 14 14 15 15 15 16 16 17 18 18 19 19 20
25 25 24 24 23 22 21 21 21 20 20 20 20 19 19 19 18 18 18 17 17 17 16 16 16 16 16 15 15 15 15 15 16 16 15 16 16 17 17 18 18 19 19 20
25 25 25 25 24 24 23 22 22 21 21 21 20 19 19 18 18 18 18 17 17 17 16 16 16 17 17 17 16 17 17 17 17 16 16 17 17 17 18 18 18 18 19 20
27 26 26 26 26 25 24 24 23 22 22 22 21 20 19 19 19 18 18 18 17 17 17 17 17 17 17 17 18 18 18 18 18 18 17 18 18 18 18 18 18 18 19 20
28 28 27 26 26 26 25 24 23 23 22 22 21 21 20 20 20 19 19 19 18 17 17 17 17 18 18 19 19 19 19 19 19 19 19 19 19 19 18 18 18 18 18 20

GEFSNGP_500_meanwind_234.txt.gz
Wind_Speed
4 4 5 6 6 7 7 7 9 10 9 8 10 10 10 9 10 10 11 12 12 12 13 13 12 11 10 10 9 9 9 8 8 8 7 7 8 8 9 9 10 10 11 10
4 4 5 5 6 6 7 8 8 8 7 8 8 10 10 9 10 10 11 12 12 12 12 11 10 10 9 9 8 8 7 7 7 7 7 7 8 7 8 8 9 9 10 11
5 5 5 6 6 7 8 8 9 8 8 9 8 9 10 9 10 10 11 12 12 12 11 10 10 9 9 8 8 7 7 7 7 7 7 8 8 8 8 8 9 10 10 11
6 6 6 7 7 8 9 9 9 9 9 9 9 9 9 9 10 10 11 12 11 10 10 10 10 10 8 8 8 8 7 7 7 7 8 8 8 8 8 8 9 10 11 12
6 6 7 8 8 9 10 10 9 8 7 8 8 8 8 9 9 10 11 11 11 10 10 10 10 10 9 8 8 7 6 6 6 7 7 7 8 8 9 9 10 11 11 13
9 9 9 10 10 11 11 10 10 9 8 8 9 9 9 9 10 11 11 11 10 10 10 10 10 10 9 8 7 6 6 6 6 7 7 7 8 9 9 10 11 12 12 13
11 11 11 12 11 11 11 10 9 9 9 9 9 10 10 10 11 11 11 11 9 10 10 10 10 9 8 7 6 6 6 7 7 7 8 8 9 9 10 10 11 12 13 15
12 12 13 13 13 12 12 10 9 10 10 10 10 10 11 11 11 11 11 10 9 9 9 9 9 8 7 6 6 6 7 7 8 8 8 9 9 10 11 11 12 13 14 15
14 14 14 14 13 13 12 12 11 11 11 11 11 11 10 10 10 10 10 10 9 8 8 8 8 7 7 7 6 7 8 8 9 9 9 10 10 11 11 12 13 14 15 16
15 15 15 14 13 13 12 12 12 12 12 11 11 10 9 9 9 10 10 9 8 8 8 8 8 7 7 7 7 8 8 9 10 10 10 10 11 11 12 13 14 15 16 17
15 15 15 14 15 13 12 12 12 12 12 12 10 10 10 10 10 10 10 9 9 8 8 8 8 7 7 7 8 8 9 10 10 11 11 11 11 11 12 13 15 16 17 18
16 16 15 15 15 14 14 13 13 12 12 12 11 11 11 11 11 11 10 10 9 8 8 8 8 8 8 8 9 9 9 10 10 11 11 12 12 12 13 15 16 17 17 18
16 15 15 16 15 15 14 14 14 14 13 12 11 11 11 11 11 11 10 10 9 9 9 9 9 9 9 9 9 10 10 11 11 11 12 13 13 14 15 16 17 17 18 18
16 16 16 16 16 16 15 15 15 15 14 13 12 12 12 12 12 11 11 10 10 10 10 10 10 10 9 9 10 10 11 11 12 12 13 13 14 15 16 16 17 18 18 18
17 16 16 16 16 15 14 15 15 15 14 14 13 13 12 12 12 11 11 11 10 10 10 10 10 10 10 9 10 11 12 12 12 13 14 14 15 16 17 17 18 18 18 18
18 17 16 16 15 15 16 16 16 16 15 14 13 13 13 13 12 12 11 10 10 11 11 10 10 10 10 10 10 11 12 13 13 14 15 15 16 16 17 18 18 19 19 19
19 18 17 17 17 17 16 16 17 16 15 15 15 14 14 13 13 13 12 12 11 11 11 11 11 11 11 11 12 12 13 14 14 15 16 16 16 17 17 18 18 19 20 20
21 20 19 18 17 16 16 17 17 17 16 15 15 15 15 14 14 14 13 13 12 12 12 12 11 12 12 13 13 14 14 14 15 16 16 17 17 18 18 18 19 20 20 20
23 22 21 19 18 18 18 18 18 18 17 17 16 16 16 15 15 15 14 14 14 14 13 12 12 13 13 14 14 14 15 15 15 16 17 17 18 18 18 19 20 20 21 20
23 23 22 21 20 20 19 19 19 19 18 18 17 17 16 16 16 16 15 15 15 14 14 13 13 13 14 15 15 15 16 16 16 16 16 17 18 19 19 19 20 21 20 20
23 23 23 22 21 20 20 20 20 20 19 18 18 17 17 17 17 17 17 16 16 15 15 14 14 15 15 15 15 16 16 16 17 17 17 18 19 19 20 20 20 21 21 20
25 24 24 24 23 22 22 22 22 21 20 20 20 19 19 19 19 18 18 17 17 16 16 16 16 16 16 16 16 17 17 17 18 18 18 18 19 20 20 20 20 20 20 21
25 25 25 25 24 24 24 23 23 22 22 22 22 21 21 21 20 20 19 19 18 17 17 17 17 17 17 17 17 18 18 18 18 18 19 19 19 20 20 20 20 20 20 20
26 26 26 25 25 25 25 24 24 23 23 23 23 22 22 22 21 21 20 20 19 19 19 18 18 18 18 18 18 18 18 18 18 19 19 20 20 20 20 20 21 21 21 20
29 28 28 27 27 27 27 26 25 24 24 23 23 23 23 22 22 21 21 21 21 21 20 20 20 19 18 19 19 19 19 19 19 20 20 20 20 20 21 21 20 21 20 20
29 30 30 29 28 28 27 27 26 25 25 24 24 23 23 23 22 22 22 22 21 21 20 20 19 19 19 20 20 20 20 20 20 21 21 21 21 21 21 21 21 21 20 20
29 29 29 29 29 29 28 28 27 26 25 25 25 24 24 24 23 22 21 21 21 20 19 19 20 19 19 20 20 20 20 20 20 21 21 22 22 21 21 21 20 20 20 20

GEFSNGP_500_meanwind_240.txt.gz
Wind_Speed
6 6 5 5 4 5 6 6 7 7 7 6 7 8 7 6 6 7 8 8 8 9 9 9 10 9 8 8 7 7 7 7 7 7 7 6 6 6 6 7 7 7 8 9
6 7 6 5 5 5 6 6 6 6 6 6 6 7 7 7 7 7 8 8 9 10 10 10 9 8 7 8 7 7 7 7 7 7 6 6 6 6 6 7 7 7 8 8
7 7 7 5 5 5 6 7 7 7 7 7 6 7 7 7 7 7 8 8 9 9 9 9 8 7 8 8 8 7 6 7 7 7 6 6 5 6 7 7 7 7 7 7
8 8 8 8 7 7 7 7 6 6 6 7 7 8 8 7 6 7 7 8 9 8 8 8 8 8 8 8 7 7 6 6 7 7 6 5 5 6 7 7 6 7 7 8
10 10 10 10 9 7 7 7 7 6 6 7 7 8 7 7 7 7 8 8 9 8 8 8 9 9 8 8 7 7 7 7 6 6 6 5 5 6 6 7 7 8 9 10
11 11 11 10 9 8 8 7 7 8 8 8 9 9 8 8 8 8 8 7 8 8 8 9 9 9 8 8 8 7 6 6 6 6 6 6 6 7 7 7 8 9 10 12
12 12 11 10 10 9 8 8 8 9 9 10 10 10 9 8 8 8 7 7 8 8 8 9 9 9 8 8 8 7 6 6 6 6 6 7 7 7 8 9 9 10 12 12
12 12 11 10 10 10 9 10 10 10 10 10 10 9 8 8 8 8 7 7 8 8 8 8 8 8 8 8 7 6 6 6 6 7 7 7 8 8 9 10 11 11 12 13
13 13 12 12 12 12 12 12 11 12 12 11 10 9 8 8 8 8 8 8 8 8 7 8 8 8 7 7 7 7 7 7 7 7 7 8 9 9 10 11 12 13 14 15
15 15 14 14 13 13 13 13 13 11 11 11 10 10 8 8 8 8 8 8 8 8 7 8 8 8 8 7 7 7 7 8 8 8 8 8 9 10 11 12 13 14 15 16
15 14 14 13 13 13 13 13 12 12 11 11 11 9 8 7 7 7 8 8 8 8 9 8 8 8 8 7 7 7 7 8 9 9 10 10 10 11 12 13 14 15 15 16
16 15 15 15 14 14 15 14 13 12 12 11 11 10 9 8 8 8 8 8 8 9 9 9 9 9 8 8 7 8 8 9 10 10 11 11 11 12 13 14 14 15 15 15
17 16 16 16 15 16 16 14 13 12 12 12 11 10 10 9 9 9 9 9 8 8 9 8 8 8 7 8 8 9 9 10 10 10 11 11 12 13 14 14 15 15 16 16
18 18 17 17 16 15 15 15 14 13 12 12 11 10 10 10 10 10 10 10 9 9 8 8 7 7 8 8 9 9 10 10 10 10 11 12 13 14 15 15 15 16 16 15
19 19 19 18 17 16 16 16 15 14 13 12 11 11 11 11 11 11 11 11 10 10 9 9 8 8 9 9 10 10 10 11 11 11 12 12 13 14 15 16 16 16 16 15
20 20 20 19 18 17 17 17 16 15 14 13 12 12 12 12 12 12 11 11 11 10 10 10 9 9 9 10 11 11 11 11 11 12 13 14 14 15 16 16 17 16 16 16
22 21 20 20 19 18 17 17 17 16 15 15 14 13 13 13 13 13 13 12 12 11 10 10 10 9 10 10 11 11 11 12 12 13 14 15 15 16 16 17 17 17 16 16
22 21 21 21 20 19 18 17 17 17 16 16 15 14 13 14 14 14 13 13 12 12 11 11 11 10 10 11 12 12 12 13 13 14 14 15 16 16 17 17 17 17 17 17
22 21 20 21 20 20 19 18 18 17 17 17 16 15 15 14 14 14 14 14 13 13 13 12 12 12 12 13 13 13 13 14 15 15 15 16 17 17 17 17 17 17 18 18
22 22 21 21 21 20 20 19 18 18 19 18 17 16 16 16 15 15 15 15 15 15 14 14 14 14 14 14 14 14 15 16 16 16 16 16 17 17 17 17 17 18 18 18
23 23 22 22 22 21 21 20 20 20 19 18 17 17 17 17 16 16 16 15 16 16 15 15 15 15 15 15 15 16 16 17 17 17 17 17 17 17 17 18 18 18 18 18
24 24 24 23 23 23 23 23 23 21 20 19 19 19 19 18 17 17 17 16 16 17 16 17 17 16 17 17 17 17 17 17 17 17 17 17 17 17 18 18 18 18 19 18
25 25 25 24 24 24 25 25 25 23 21 20 20 20 19 19 19 19 18 18 18 18 18 18 18 18 17 17 17 17 17 17 17 17 18 18 18 18 19 19 19 19 19 19
24 24 25 24 25 25 25 25 25 25 23 22 22 22 22 21 21 21 20 20 20 20 20 20 20 19 19 18 18 18 18 18 18 18 18 18 18 18 19 19 20 19 18 19
24 24 24 24 24 25 25 25 25 24 24 24 24 24 24 23 23 22 22 21 21 21 21 21 20 20 19 19 19 19 19 19 18 18 18 18 18 18 19 20 20 19 19 19
24 24 24 25 24 24 25 25 25 25 25 25 24 24 23 23 23 22 22 22 22 22 22 21 21 20 20 20 20 19 19 18 18 18 18 19 19 19 19 20 19 19 19 19
25 24 25 25 25 25 25 24 24 24 24 23 24 24 24 24 24 23 23 23 22 22 22 22 22 21 20 20 19 19 19 19 19 19 19 19 19 20 20 19 19 18 18 18